Regional Weather Roundup
Issued by NWS Upton, NY

Current Version | Previous Version | Text Only | Print | Product List | Glossary On
Versions: 1 2 3 4 5 6 7 8 9 10 11 12 13 14 15 16 17 18 19 20 21 22 23 24 25 26 27 28 29 30 31 32 33 34 35 36 37 38 39 40 41 42 43 44 45 46 47 48 49 50
244
ASUS41 KOKX 241804
RWROKX

REGIONAL WEATHER ROUNDUP
NATIONAL WEATHER SERVICE NEW YORK NY
200 PM EDT TUE MAY 24 2016

NOTE: "FAIR" INDICATES FEW OR NO CLOUDS BELOW 12,000 FEET WITH NO
SIGNIFICANT WEATHER AND/OR OBSTRUCTIONS TO VISIBILITY.

NYZ071-072-176-178-NJZ106-104-241900-
NEW YORK CITY METRO AREA


CITY           SKY/WX    TMP DP  RH WIND       PRES   REMARKS
CENTRAL PARK   PTSUNNY   70  58  65 CALM      29.94F
LAGUARDIA APRT CLOUDY    71  61  70 VRB6      29.90F
KENNEDY INTL   PTSUNNY   70  55  59 W10       29.92F
NEWARK/LIBERTY CLOUDY    72  57  59 W10       29.91F
BRNX BOT. GARD   N/A     70  57  64 NW2       29.93F
TETERBORO      CLOUDY    72  55  55 NW8       29.90F
$$

NYZ177-179-078>081-241900-
LONG ISLAND NEW YORK

CITY           SKY/WX    TMP DP  RH WIND       PRES   REMARKS
FARMINGDALE    PTSUNNY   70  55  59 NW9G16    29.90F
ISLIP          CLOUDY    68  56  65 NW10      29.89F
SHIRLEY        CLOUDY    66  58  75 N9        29.90S
RIVERHEAD        N/A     59  59 100 NE6       29.89S
WESTHAMPTON    LGT RAIN  56  56 100 NW9       29.91S FOG
EAST HAMPTON   CLOUDY    58  56  93 CALM      29.89S
MONTAUK POINT    N/A     59  56  89 VRB5      29.90F
$$

NYZ052-065-067-241900-
HUDSON VALLEY

CITY           SKY/WX    TMP DP  RH WIND       PRES   REMARKS
WHITE PLAINS   LGT RAIN  66  56  70 NW12      29.91S
NEWBURGH       PTSUNNY   66  55  68 VRB6      29.93F
MONTGOMERY     CLOUDY    70  56  61 E7        29.92R
POUGHKEEPSIE   CLOUDY    68  54  60 N5        29.91S
ALBANY         CLOUDY    64  57  78 E3        29.95R
$$

NJZ001-105-106-008-010-013-015-019>022-104-241900-
NEW JERSEY

CITY           SKY/WX    TMP DP  RH WIND       PRES   REMARKS
NEWARK/LIBERTY CLOUDY    72  57  59 W10       29.91F
TETERBORO      CLOUDY    72  55  55 NW8       29.90F
CALDWELL       CLOUDY    73  54  51 NE8       29.91F
MORRISTOWN     PTSUNNY   72  59  64 SE6       29.92S
SOMERVILLE     CLOUDY    75  55  49 CALM      29.89F
SUSSEX         CLOUDY    70  55  59 E6        29.91S
ANDOVER          N/A     75  48  38 CALM      29.90F
TRENTON        MOSUNNY   75  53  46 VRB7      29.91F
MILLVILLE      PTSUNNY   74  56  53 W9        29.96F
ATLANTIC CITY  CLOUDY    73  53  49 W8        29.94F
WRIGHTSTOWN    NOT AVBL
TOMS RIVER     CLOUDY    73  54  49 NW8       29.93F
BELMAR         CLOUDY    71  57  61 W8        29.93F
$$

PAZ047>061-062-071-241900-
EASTERN PENNSYLVANIA

CITY           SKY/WX    TMP DP  RH WIND       PRES   REMARKS
PHILADELPHIA   PTSUNNY   77  50  38 W16       29.94F
ALLENTOWN      PTSUNNY   80  44  27 NW13G20   29.90F
SCRANTON       SUNNY     80  39  23 N16G25    29.92F
$$

CTZ002-004>006-009-010-012-RIZ004-006-007-MAZ004-011-015-241900-
SOUTHERN NEW ENGLAND
 IN CT

CITY           SKY/WX    TMP DP  RH WIND       PRES   REMARKS
BRADLEY INTL   CLOUDY    65  55  70 N9        29.90S
HARTFORD       CLOUDY    67  57  70 N10       29.89S
DANBURY        CLOUDY    68  55  63 NE9       29.91S
WTRBRY/OXFORD  CLOUDY    63  54  72 NE12      29.92R
BRIDGEPORT     CLOUDY    67  58  72 S8        29.89S
MERIDEN        CLOUDY    65  55  70 N9G17     29.90S
NEW HAVEN      PTSUNNY   68  58  70 N15       29.89S
CHESTER        CLOUDY    63  57  82 N6        29.90R
GROTON         CLOUDY    58  58 100 W9        29.88S FOG
WILLIMANTIC    CLOUDY    63  54  72 NE10      29.90R

 IN RI

CITY           SKY/WX    TMP DP  RH WIND       PRES   REMARKS
PROVIDENCE     CLOUDY    59  53  80 N14       29.89F
BLOCK ISLAND   LGT RAIN  56  55  97 N9        29.89S FOG
WESTERLY       CLOUDY    62  55  77 VRB5      29.88F

 IN MA

CITY           SKY/WX    TMP DP  RH WIND       PRES   REMARKS
BOSTON         CLOUDY    54  52  93 NE12      29.93F
WORCESTER      CLOUDY    57  52  83 NE9       29.92
WESTFIELD      CLOUDY    64  55  72 N7        29.91R
PROVINCETOWN   CLOUDY    62  57  83 W8        29.91S
NANTUCKET      CLOUDY    60  53  77 SE14      29.89F
$$

ANZ330-335-338-340-345-350-353-355-241900-
COASTAL MARINE OBSERVATIONS


STATION/POSITION TIME  SKY/WX   TEMP    WIND        PRES    VSBY  WAVE
                                AIR SEA DIR/SP/G                  HT/PER
                 (UTC)          (F)     (DEG/KT/KT) (MB)    (MI)  (FT/S)
NY HARB ENTRANCE 1650            60 58  280/  6/  8 1013.1          3/10
20S FIRE ISLAND  1650            56 54  270/  6/  8 1012.8          4/ 9
GREAT SOUTH BAY  1700            64 64  320/ 10/ 14   N/A
23 SSW MONTAUK P 1750            55 54  240/  8/  8 1011.8          4/ 8
15 E BARNEGAT LI 1722               55                N/A           3/ 9
HUDSON CANYON    1650            54 53              1013.5          4/ 9
KINGS POINT      1700            64 57              1012.9
EXECUTION ROCKS  NOT AVBL
CENTRAL LI SOUND NOT AVBL
EASTERN LI SOUND 1700            56 52  210/  4/  6   N/A
ROBBINS REEF     1718            67     240/  6/  7 1012.4
$$


>>>>>>>>>>>>>>>>>>>>>>>>>>>> KEY <<<<<<<<<<<<<<<<<<<<<<<<<<<
>                                                          <
>     SKY/WX - SKY CONDITION/PRESENT WEATHER               <
>     TMP    - TEMPERATURE IN FAHRENHEIT                   <
>     DP     - DEWPOINT IN FAHRENHEIT                      <
>     RH     - RELATIVE HUMIDITY IN PERCENT                <
>     WIND   - DIRECTION AND SPEED IN MPH                  <
>     PRES   - MEAN SEA LEVEL PRESSURE IN INCHES OF HG     <
>     WCI    - WIND CHILL INDEX                            <
>     VSB    - VISIBILITY IN MILES                         <
>     HX     - HEAT INDEX                                  <
>     TC     - TEMPERATURE IN CELSIUS                      <
>     VRB    - VARIABLE WIND DIRECTION                     <
>                                                          <
>>>>>>>>>>>>>>>>>>>>>>>>>>>> KEY <<<<<<<<<<<<<<<<<<<<<<<<<<<






USA.gov is the U.S. government's official web portal to all federal, state and local government web resources and services.